Volver al catálogo

JIAOTONG VDES A

ActivoCienciaPO
NORAD 66913·PAYLOAD·🇨🇳 China
Este nombre de satélite aún no ha sido confirmado por fuentes oficiales.

Lanzado Dec 5, 2025 desde Jiuquan Satellite Launch Center

Loading…

Próximos Pases (próximas 24 horas)

TLE

ActualizadoSource: Space-Track

Época: Sep 14, 2026, 13:05 UTC

1 66913U 25284A   26257.54547426  .00000114  00000-0  74313-4 0  9993
2 66913  80.4068 196.1011 0005068 260.2161  99.8428 13.97366818 39968

Sigue JIAOTONG VDES A en tiempo real con AllMySat

Download on the App Store